Time,TemperatureF,DewpointF,PressureIn,WindDirection,WindDirectionDegrees,WindSpeedMPH,WindSpeedGustMPH,Humidity,HourlyPrecipIn,Conditions,Clouds,dailyrainin,SoftwareType,DateUTC
2013-02-09 00:00:00,33.2,27.1,30.27,NW,315,0.0,1.0,78,0.00,,,0.08,Wunderground v.1.15,2013-02-09 05:00:00,
2013-02-09 00:01:00,33.2,27.1,30.27,NW,321,2.0,2.0,78,0.00,,,0.08,Wunderground v.1.15,2013-02-09 05:01:00,
2013-02-09 00:06:00,33.2,27.1,30.27,NNW,327,1.0,4.0,78,0.00,,,0.08,Wunderground v.1.15,2013-02-09 05:06:00,
2013-02-09 00:10:00,33.2,27.1,30.27,NNW,327,0.0,1.0,78,0.00,,,0.00,Wunderground v.1.15,2013-02-09 05:10:00,
2013-02-09 00:15:00,33.1,27.0,30.27,North,358,1.0,2.0,78,0.00,,,0.00,Wunderground v.1.15,2013-02-09 05:15:00,
2013-02-09 00:21:00,33.2,27.1,30.27,NNE,24,1.0,4.0,78,0.00,,,0.00,Wunderground v.1.15,2013-02-09 05:21:00,
2013-02-09 00:26:00,33.2,27.1,30.27,NNE,17,2.0,4.0,78,0.00,,,0.00,Wunderground v.1.15,2013-02-09 05:26:00,
2013-02-09 00:31:00,33.2,27.1,30.27,NNE,16,0.0,1.0,78,0.00,,,0.00,Wunderground v.1.15,2013-02-09 05:31:00,
2013-02-09 00:36:00,33.2,27.1,30.27,NNW,344,0.0,4.0,78,0.00,,,0.00,Wunderground v.1.15,2013-02-09 05:36:00,
2013-02-09 00:42:00,33.2,27.4,30.27,NNW,348,0.0,1.0,79,0.00,,,0.00,Wunderground v.1.15,2013-02-09 05:42:00,
2013-02-09 00:47:00,33.2,27.1,30.27,NNE,29,0.0,1.0,78,0.00,,,0.00,Wunderground v.1.15,2013-02-09 05:47:00,
2013-02-09 00:52:00,33.1,27.0,30.27,NNE,29,0.0,1.0,78,0.00,,,0.00,Wunderground v.1.15,2013-02-09 05:52:00,
2013-02-09 00:57:00,33.1,27.0,30.27,NNW,330,3.0,3.0,78,0.00,,,0.00,Wunderground v.1.15,2013-02-09 05:57:00,
2013-02-09 01:02:00,33.1,27.0,30.27,NNE,23,0.0,1.0,78,0.00,,,0.00,Wunderground v.1.15,2013-02-09 06:02:00,
2013-02-09 01:07:00,32.9,26.8,30.27,NNE,23,0.0,2.0,78,0.00,,,0.00,Wunderground v.1.15,2013-02-09 06:07:00,
2013-02-09 01:12:00,32.9,27.1,30.27,NNE,23,0.0,0.0,79,0.00,,,0.00,Wunderground v.1.15,2013-02-09 06:12:00,
2013-02-09 01:18:00,32.9,27.1,30.27,NNE,28,3.0,3.0,79,0.00,,,0.00,Wunderground v.1.15,2013-02-09 06:18:00,
2013-02-09 01:23:00,32.8,27.0,30.29,NNE,28,0.0,1.0,79,0.00,,,0.00,Wunderground v.1.15,2013-02-09 06:23:00,
2013-02-09 01:28:00,32.8,27.0,30.29,NNE,28,2.0,2.0,79,0.00,,,0.00,Wunderground v.1.15,2013-02-09 06:28:00,
2013-02-09 01:33:00,32.8,27.0,30.29,NNE,28,0.0,4.0,79,0.00,,,0.00,Wunderground v.1.15,2013-02-09 06:33:00,
2013-02-09 01:38:00,32.7,26.9,30.28,NNE,28,0.0,4.0,79,0.00,,,0.00,Wunderground v.1.15,2013-02-09 06:38:00,
2013-02-09 01:44:00,32.7,26.9,30.28,NNE,28,0.0,0.0,79,0.00,,,0.00,Wunderground v.1.15,2013-02-09 06:44:00,
2013-02-09 01:49:00,32.5,26.7,30.28,North,349,0.0,3.0,79,0.00,,,0.00,Wunderground v.1.15,2013-02-09 06:49:00,
2013-02-09 01:54:00,32.4,26.6,30.28,NNE,29,0.0,5.0,79,0.00,,,0.00,Wunderground v.1.15,2013-02-09 06:54:00,
2013-02-09 02:00:00,32.2,26.4,30.28,NNE,29,0.0,1.0,79,0.00,,,0.00,Wunderground v.1.15,2013-02-09 07:00:00,
2013-02-09 02:05:00,32.1,26.3,30.28,NNE,29,1.0,3.0,79,0.00,,,0.00,Wunderground v.1.15,2013-02-09 07:05:00,
2013-02-09 02:10:00,31.9,26.4,30.28,NNE,28,0.0,0.0,80,0.00,,,0.00,Wunderground v.1.15,2013-02-09 07:10:00,
2013-02-09 02:15:00,31.9,26.4,30.28,NNE,29,2.0,2.0,80,0.00,,,0.00,Wunderground v.1.15,2013-02-09 07:15:00,
2013-02-09 02:20:00,31.8,26.3,30.28,NNE,28,0.0,0.0,80,0.00,,,0.00,Wunderground v.1.15,2013-02-09 07:20:00,
2013-02-09 02:25:00,31.8,26.3,30.29,NNE,29,0.0,2.0,80,0.00,,,0.00,Wunderground v.1.15,2013-02-09 07:25:00,
2013-02-09 02:30:00,31.8,26.6,30.29,NNE,27,0.0,1.0,81,0.00,,,0.00,Wunderground v.1.15,2013-02-09 07:30:00,
2013-02-09 02:35:00,31.6,26.1,30.29,NNE,27,0.0,3.0,80,0.00,,,0.00,Wunderground v.1.15,2013-02-09 07:35:00,
2013-02-09 02:40:00,31.5,26.3,30.29,NNE,27,0.0,3.0,81,0.00,,,0.00,Wunderground v.1.15,2013-02-09 07:40:00,
2013-02-09 02:45:00,31.3,26.1,30.29,NNE,27,0.0,3.0,81,0.00,,,0.00,Wunderground v.1.15,2013-02-09 07:45:00,
2013-02-09 02:50:00,31.2,26.0,30.29,NNE,27,0.0,2.0,81,0.00,,,0.00,Wunderground v.1.15,2013-02-09 07:50:00,
2013-02-09 02:55:00,31.2,26.0,30.29,NNE,24,0.0,4.0,81,0.00,,,0.00,Wunderground v.1.15,2013-02-09 07:55:00,
2013-02-09 03:00:00,31.0,26.1,30.29,NNE,22,0.0,1.0,82,0.00,,,0.00,Wunderground v.1.15,2013-02-09 08:00:00,
2013-02-09 03:05:00,31.0,26.1,30.29,NNE,22,0.0,2.0,82,0.00,,,0.00,Wunderground v.1.15,2013-02-09 08:05:00,
2013-02-09 03:10:00,31.0,25.9,30.30,NNE,22,0.0,1.0,81,0.00,,,0.00,Wunderground v.1.15,2013-02-09 08:10:00,
2013-02-09 03:15:00,31.2,26.3,30.30,NNE,22,0.0,3.0,82,0.00,,,0.00,Wunderground v.1.15,2013-02-09 08:15:00,
2013-02-09 03:20:00,31.2,26.3,30.30,NNE,22,0.0,1.0,82,0.00,,,0.00,Wunderground v.1.15,2013-02-09 08:20:00,
2013-02-09 03:25:00,31.2,26.0,30.31,NNE,22,0.0,2.0,81,0.00,,,0.00,Wunderground v.1.15,2013-02-09 08:25:00,
2013-02-09 03:30:00,31.2,26.0,30.31,NNE,22,0.0,0.0,81,0.00,,,0.00,Wunderground v.1.15,2013-02-09 08:30:00,
2013-02-09 03:35:00,31.2,26.0,30.31,NNE,22,0.0,2.0,81,0.00,,,0.00,Wunderground v.1.15,2013-02-09 08:35:00,
2013-02-09 03:40:00,31.2,26.0,30.30,NNE,21,0.0,0.0,81,0.00,,,0.00,Wunderground v.1.15,2013-02-09 08:40:00,
2013-02-09 03:45:00,31.0,25.9,30.30,NNE,21,0.0,2.0,81,0.00,,,0.00,Wunderground v.1.15,2013-02-09 08:45:00,
2013-02-09 03:50:00,31.0,25.9,30.30,NNE,21,0.0,2.0,81,0.00,,,0.00,Wunderground v.1.15,2013-02-09 08:50:00,
2013-02-09 03:55:00,31.0,25.9,30.31,NNE,21,0.0,3.0,81,0.00,,,0.00,Wunderground v.1.15,2013-02-09 08:55:00,
2013-02-09 04:00:00,30.9,25.8,30.31,NNE,21,0.0,0.0,81,0.00,,,0.00,Wunderground v.1.15,2013-02-09 09:00:00,
2013-02-09 04:05:00,30.9,25.8,30.31,NNE,21,0.0,1.0,81,0.00,,,0.00,Wunderground v.1.15,2013-02-09 09:05:00,
2013-02-09 04:10:00,30.7,25.9,30.31,NNE,21,0.0,0.0,82,0.00,,,0.00,Wunderground v.1.15,2013-02-09 09:10:00,
2013-02-09 04:15:00,30.7,25.9,30.31,NNE,21,0.0,3.0,82,0.00,,,0.00,Wunderground v.1.15,2013-02-09 09:15:00,
2013-02-09 04:20:00,30.7,25.9,30.31,NNE,32,0.0,2.0,82,0.00,,,0.00,Wunderground v.1.15,2013-02-09 09:20:00,
2013-02-09 04:25:00,30.7,25.6,30.31,NNE,32,0.0,2.0,81,0.00,,,0.00,Wunderground v.1.15,2013-02-09 09:25:00,
2013-02-09 04:30:00,30.7,25.6,30.31,NNE,32,4.0,4.0,81,0.00,,,0.00,Wunderground v.1.15,2013-02-09 09:30:00,
2013-02-09 04:35:00,30.6,25.5,30.31,NNE,12,0.0,6.0,81,0.00,,,0.00,Wunderground v.1.15,2013-02-09 09:35:00,
2013-02-09 04:40:00,30.4,25.3,30.31,NNE,12,0.0,1.0,81,0.00,,,0.00,Wunderground v.1.15,2013-02-09 09:40:00,
2013-02-09 04:45:00,30.3,25.2,30.31,NNE,12,0.0,1.0,81,0.00,,,0.00,Wunderground v.1.15,2013-02-09 09:45:00,
2013-02-09 04:50:00,30.1,25.3,30.31,NNE,14,2.0,4.0,82,0.00,,,0.00,Wunderground v.1.15,2013-02-09 09:50:00,
2013-02-09 04:55:00,30.1,25.3,30.32,NNE,14,0.0,4.0,82,0.00,,,0.00,Wunderground v.1.15,2013-02-09 09:55:00,
2013-02-09 05:00:00,30.1,25.3,30.32,NNE,14,3.0,3.0,82,0.00,,,0.00,Wunderground v.1.15,2013-02-09 10:00:00,
2013-02-09 05:05:00,30.1,25.0,30.32,NNE,15,0.0,3.0,81,0.00,,,0.00,Wunderground v.1.15,2013-02-09 10:05:00,
2013-02-09 05:10:00,30.1,25.3,30.33,NNE,15,0.0,0.0,82,0.00,,,0.00,Wunderground v.1.15,2013-02-09 10:10:00,
2013-02-09 05:15:00,30.0,25.2,30.33,NNE,15,0.0,3.0,82,0.00,,,0.00,Wunderground v.1.15,2013-02-09 10:15:00,
2013-02-09 05:20:00,30.0,25.2,30.33,East,86,0.0,5.0,82,0.00,,,0.00,Wunderground v.1.15,2013-02-09 10:20:00,
2013-02-09 05:26:00,30.0,24.9,30.33,East,94,2.0,6.0,81,0.00,,,0.00,Wunderground v.1.15,2013-02-09 10:26:00,
2013-02-09 05:31:00,29.8,24.7,30.33,East,91,0.0,3.0,81,0.00,,,0.00,Wunderground v.1.15,2013-02-09 10:31:00,
2013-02-09 05:36:00,29.7,24.6,30.33,East,91,0.0,3.0,81,0.00,,,0.00,Wunderground v.1.15,2013-02-09 10:36:00,
2013-02-09 05:41:00,29.5,24.7,30.33,East,84,1.0,2.0,82,0.00,,,0.00,Wunderground v.1.15,2013-02-09 10:41:00,
2013-02-09 05:46:00,29.4,24.6,30.33,East,79,0.0,5.0,82,0.00,,,0.00,Wunderground v.1.15,2013-02-09 10:46:00,
2013-02-09 05:51:00,29.4,24.6,30.33,East,79,0.0,1.0,82,0.00,,,0.00,Wunderground v.1.15,2013-02-09 10:51:00,
2013-02-09 05:56:00,29.4,24.6,30.33,ENE,63,0.0,3.0,82,0.00,,,0.00,Wunderground v.1.15,2013-02-09 10:56:00,
2013-02-09 06:01:00,29.4,24.6,30.33,ENE,60,0.0,4.0,82,0.00,,,0.00,Wunderground v.1.15,2013-02-09 11:01:00,
2013-02-09 06:06:00,29.3,24.5,30.34,ENE,60,0.0,4.0,82,0.00,,,0.00,Wunderground v.1.15,2013-02-09 11:06:00,
2013-02-09 06:11:00,29.1,24.3,30.34,NNE,25,0.0,7.0,82,0.00,,,0.00,Wunderground v.1.15,2013-02-09 11:11:00,
2013-02-09 06:16:00,29.1,24.3,30.34,NNE,26,2.0,7.0,82,0.00,,,0.00,Wunderground v.1.15,2013-02-09 11:16:00,
2013-02-09 06:21:00,29.1,24.3,30.34,NNE,30,3.0,3.0,82,0.00,,,0.00,Wunderground v.1.15,2013-02-09 11:21:00,
2013-02-09 06:26:00,29.1,24.3,30.34,NE,44,0.0,5.0,82,0.00,,,0.00,Wunderground v.1.15,2013-02-09 11:26:00,
2013-02-09 06:31:00,29.1,24.3,30.34,East,86,0.0,4.0,82,0.00,,,0.00,Wunderground v.1.15,2013-02-09 11:31:00,
2013-02-09 06:36:00,29.1,24.3,30.34,NE,54,2.0,6.0,82,0.00,,,0.00,Wunderground v.1.15,2013-02-09 11:36:00,
2013-02-09 06:41:00,29.1,24.3,30.34,NE,50,5.0,5.0,82,0.00,,,0.00,Wunderground v.1.15,2013-02-09 11:41:00,
2013-02-09 06:46:00,29.0,24.2,30.34,NNE,13,3.0,5.0,82,0.00,,,0.00,Wunderground v.1.15,2013-02-09 11:46:00,
2013-02-09 06:51:00,29.0,24.2,30.34,NNE,15,0.0,1.0,82,0.00,,,0.00,Wunderground v.1.15,2013-02-09 11:51:00,
2013-02-09 06:56:00,29.0,24.2,30.34,NNE,15,1.0,4.0,82,0.00,,,0.00,Wunderground v.1.15,2013-02-09 11:56:00,
2013-02-09 07:01:00,29.0,24.2,30.34,NNE,16,0.0,2.0,82,0.00,,,0.00,Wunderground v.1.15,2013-02-09 12:01:00,
2013-02-09 07:06:00,29.0,24.2,30.34,NE,35,1.0,6.0,82,0.00,,,0.00,Wunderground v.1.15,2013-02-09 12:06:00,
2013-02-09 07:11:00,29.0,24.2,30.34,NE,37,1.0,3.0,82,0.00,,,0.00,Wunderground v.1.15,2013-02-09 12:11:00,
2013-02-09 07:16:00,29.0,24.2,30.34,NE,38,1.0,5.0,82,0.00,,,0.00,Wunderground v.1.15,2013-02-09 12:16:00,
2013-02-09 07:21:00,29.0,24.2,30.35,NE,38,1.0,4.0,82,0.00,,,0.00,Wunderground v.1.15,2013-02-09 12:21:00,
2013-02-09 07:26:00,29.0,24.2,30.35,NE,38,2.0,4.0,82,0.00,,,0.00,Wunderground v.1.15,2013-02-09 12:26:00,
2013-02-09 07:31:00,28.8,24.0,30.35,NE,36,0.0,4.0,82,0.00,,,0.00,Wunderground v.1.15,2013-02-09 12:31:00,
2013-02-09 07:36:00,29.0,24.2,30.35,NNE,33,2.0,5.0,82,0.00,,,0.00,Wunderground v.1.15,2013-02-09 12:36:00,
2013-02-09 07:41:00,29.1,24.3,30.35,NE,55,0.0,4.0,82,0.00,,,0.00,Wunderground v.1.15,2013-02-09 12:41:00,
2013-02-09 07:46:00,29.4,24.3,30.35,NE,36,0.0,5.0,81,0.00,,,0.00,Wunderground v.1.15,2013-02-09 12:46:00,
2013-02-09 07:51:00,29.7,24.6,30.36,NE,46,0.0,5.0,81,0.00,,,0.00,Wunderground v.1.15,2013-02-09 12:51:00,
2013-02-09 07:57:00,30.0,24.9,30.36,NE,40,0.0,6.0,81,0.00,,,0.00,Wunderground v.1.15,2013-02-09 12:57:00,
2013-02-09 08:02:00,30.3,24.9,30.36,North,6,4.0,4.0,80,0.00,,,0.00,Wunderground v.1.15,2013-02-09 13:02:00,
2013-02-09 08:07:00,30.6,24.9,30.36,North,6,3.0,5.0,79,0.00,,,0.00,Wunderground v.1.15,2013-02-09 13:07:00,
2013-02-09 08:12:00,30.9,24.8,30.36,ENE,74,2.0,5.0,78,0.00,,,0.00,Wunderground v.1.15,2013-02-09 13:12:00,
2013-02-09 08:17:00,31.2,24.8,30.36,NNE,33,3.0,6.0,77,0.00,,,0.00,Wunderground v.1.15,2013-02-09 13:17:00,
2013-02-09 08:22:00,31.6,25.2,30.35,NE,52,0.0,3.0,77,0.00,,,0.00,Wunderground v.1.15,2013-02-09 13:22:00,
2013-02-09 08:27:00,32.1,25.4,30.35,NE,51,1.0,6.0,76,0.00,,,0.00,Wunderground v.1.15,2013-02-09 13:27:00,
2013-02-09 08:32:00,32.4,25.4,30.35,NE,51,0.0,3.0,75,0.00,,,0.00,Wunderground v.1.15,2013-02-09 13:32:00,
2013-02-09 08:37:00,32.5,25.1,30.37,NNE,19,2.0,6.0,74,0.00,,,0.00,Wunderground v.1.15,2013-02-09 13:37:00,
2013-02-09 08:42:00,32.9,25.5,30.37,East,84,3.0,6.0,74,0.00,,,0.00,Wunderground v.1.15,2013-02-09 13:42:00,
2013-02-09 08:47:00,33.4,25.7,30.37,NE,42,4.0,6.0,73,0.00,,,0.00,Wunderground v.1.15,2013-02-09 13:47:00,
2013-02-09 08:52:00,33.5,25.4,30.37,NE,46,0.0,6.0,72,0.00,,,0.00,Wunderground v.1.15,2013-02-09 13:52:00,
2013-02-09 08:57:00,34.1,25.7,30.37,NNE,17,0.0,8.0,71,0.00,,,0.00,Wunderground v.1.15,2013-02-09 13:57:00,
2013-02-09 09:02:00,34.4,25.6,30.37,NE,37,0.0,4.0,70,0.00,,,0.00,Wunderground v.1.15,2013-02-09 14:02:00,
2013-02-09 09:07:00,34.7,25.6,30.37,NE,44,5.0,5.0,69,0.00,,,0.00,Wunderground v.1.15,2013-02-09 14:07:00,
2013-02-09 09:12:00,34.9,25.8,30.37,East,79,1.0,7.0,69,0.00,,,0.00,Wunderground v.1.15,2013-02-09 14:12:00,
2013-02-09 09:17:00,35.0,25.5,30.37,NE,39,3.0,7.0,68,0.00,,,0.00,Wunderground v.1.15,2013-02-09 14:17:00,
2013-02-09 09:22:00,35.0,25.5,30.37,East,82,6.0,12.0,68,0.00,,,0.00,Wunderground v.1.15,2013-02-09 14:22:00,
2013-02-09 09:27:00,35.3,26.1,30.37,ENE,70,6.0,12.0,69,0.00,,,0.00,Wunderground v.1.15,2013-02-09 14:27:00,
2013-02-09 09:32:00,35.6,26.4,30.37,NNE,24,0.0,7.0,69,0.00,,,0.00,Wunderground v.1.15,2013-02-09 14:32:00,
2013-02-09 09:38:00,36.0,26.5,30.38,East,82,2.0,7.0,68,0.00,,,0.00,Wunderground v.1.15,2013-02-09 14:38:00,
2013-02-09 09:43:00,36.3,25.7,30.38,East,82,0.0,7.0,65,0.00,,,0.00,Wunderground v.1.15,2013-02-09 14:43:00,
2013-02-09 09:48:00,36.6,26.3,30.38,East,91,0.0,9.0,66,0.00,,,0.00,Wunderground v.1.15,2013-02-09 14:48:00,
2013-02-09 09:53:00,37.2,26.9,30.38,East,82,0.0,4.0,66,0.00,,,0.00,Wunderground v.1.15,2013-02-09 14:53:00,
2013-02-09 09:58:00,37.9,26.8,30.38,East,82,1.0,5.0,64,0.00,,,0.00,Wunderground v.1.15,2013-02-09 14:58:00,
2013-02-09 10:03:00,37.3,26.2,30.38,East,80,4.0,11.0,64,0.00,,,0.00,Wunderground v.1.15,2013-02-09 15:03:00,
2013-02-09 10:08:00,37.0,26.3,30.38,East,91,0.0,11.0,65,0.00,,,0.00,Wunderground v.1.15,2013-02-09 15:08:00,
2013-02-09 10:13:00,37.6,26.1,30.38,East,86,3.0,5.0,63,0.00,,,0.00,Wunderground v.1.15,2013-02-09 15:13:00,
2013-02-09 10:18:00,38.0,26.5,30.38,East,84,0.0,5.0,63,0.00,,,0.00,Wunderground v.1.15,2013-02-09 15:18:00,
2013-02-09 10:23:00,38.6,27.5,30.38,East,79,1.0,5.0,64,0.00,,,0.00,Wunderground v.1.15,2013-02-09 15:23:00,
2013-02-09 10:28:00,38.8,26.9,30.38,East,85,4.0,7.0,62,0.00,,,0.00,Wunderground v.1.15,2013-02-09 15:28:00,
2013-02-09 10:33:00,38.8,26.9,30.38,East,89,3.0,9.0,62,0.00,,,0.00,Wunderground v.1.15,2013-02-09 15:33:00,
2013-02-09 10:38:00,38.9,27.4,30.38,ENE,60,5.0,9.0,63,0.00,,,0.00,Wunderground v.1.15,2013-02-09 15:38:00,
2013-02-09 10:43:00,39.5,27.5,30.38,ENE,77,0.0,6.0,62,0.00,,,0.00,Wunderground v.1.15,2013-02-09 15:43:00,
2013-02-09 10:48:00,39.9,26.7,30.38,ENE,68,0.0,6.0,59,0.00,,,0.00,Wunderground v.1.15,2013-02-09 15:48:00,
2013-02-09 10:53:00,40.1,27.3,30.37,East,85,7.0,12.0,60,0.00,,,0.00,Wunderground v.1.15,2013-02-09 15:53:00,
2013-02-09 10:58:00,40.6,28.2,30.37,East,89,9.0,12.0,61,0.00,,,0.00,Wunderground v.1.15,2013-02-09 15:58:00,
2013-02-09 11:03:00,40.3,27.1,30.37,East,82,10.0,10.0,59,0.00,,,0.00,Wunderground v.1.15,2013-02-09 16:03:00,
2013-02-09 11:08:00,40.5,27.3,30.37,East,84,0.0,10.0,59,0.00,,,0.00,Wunderground v.1.15,2013-02-09 16:08:00,
2013-02-09 11:13:00,41.3,28.4,30.37,East,89,3.0,8.0,60,0.00,,,0.00,Wunderground v.1.15,2013-02-09 16:13:00,
2013-02-09 11:18:00,41.3,27.2,30.37,East,82,1.0,8.0,57,0.00,,,0.00,Wunderground v.1.15,2013-02-09 16:18:00,
2013-02-09 11:23:00,41.6,27.5,30.37,NE,36,1.0,5.0,57,0.00,,,0.00,Wunderground v.1.15,2013-02-09 16:23:00,
2013-02-09 11:28:00,41.9,27.3,30.37,East,89,0.0,7.0,56,0.00,,,0.00,Wunderground v.1.15,2013-02-09 16:28:00,
2013-02-09 11:33:00,42.5,27.5,30.37,East,91,3.0,6.0,55,0.00,,,0.00,Wunderground v.1.15,2013-02-09 16:33:00,
2013-02-09 11:38:00,42.8,26.8,30.37,East,91,0.0,7.0,53,0.00,,,0.00,Wunderground v.1.15,2013-02-09 16:38:00,
2013-02-09 11:43:00,42.9,26.5,30.37,ENE,68,0.0,6.0,52,0.00,,,0.00,Wunderground v.1.15,2013-02-09 16:43:00,
2013-02-09 11:48:00,43.1,25.2,30.37,East,89,0.0,11.0,49,0.00,,,0.00,Wunderground v.1.15,2013-02-09 16:48:00,
2013-02-09 11:53:00,43.5,24.6,30.37,East,89,9.0,10.0,47,0.00,,,0.00,Wunderground v.1.15,2013-02-09 16:53:00,
2013-02-09 11:58:00,43.9,26.4,30.37,East,85,1.0,10.0,50,0.00,,,0.00,Wunderground v.1.15,2013-02-09 16:58:00,
2013-02-09 12:03:00,44.3,27.3,30.37,ESE,108,4.0,11.0,51,0.00,,,0.00,Wunderground v.1.15,2013-02-09 17:03:00,
2013-02-09 12:08:00,44.8,26.8,30.35,NNE,32,1.0,11.0,49,0.00,,,0.00,Wunderground v.1.15,2013-02-09 17:08:00,
2013-02-09 12:13:00,45.4,26.3,30.35,East,90,6.0,9.0,47,0.00,,,0.00,Wunderground v.1.15,2013-02-09 17:13:00,
2013-02-09 12:18:00,45.1,26.1,30.35,East,88,2.0,9.0,47,0.00,,,0.00,Wunderground v.1.15,2013-02-09 17:18:00,
2013-02-09 12:23:00,45.2,26.7,30.35,East,91,6.0,7.0,48,0.00,,,0.00,Wunderground v.1.15,2013-02-09 17:23:00,
2013-02-09 12:28:00,45.8,26.2,30.35,East,96,0.0,10.0,46,0.00,,,0.00,Wunderground v.1.15,2013-02-09 17:28:00,
2013-02-09 12:34:00,45.5,26.9,30.35,East,86,0.0,6.0,48,0.00,,,0.00,Wunderground v.1.15,2013-02-09 17:34:00,
2013-02-09 12:39:00,46.2,26.0,30.34,East,80,4.0,6.0,45,0.00,,,0.00,Wunderground v.1.15,2013-02-09 17:39:00,
2013-02-09 12:44:00,46.1,25.4,30.34,ENE,76,0.0,5.0,44,0.00,,,0.00,Wunderground v.1.15,2013-02-09 17:44:00,
2013-02-09 12:49:00,46.2,26.0,30.34,ENE,70,3.0,6.0,45,0.00,,,0.00,Wunderground v.1.15,2013-02-09 17:49:00,
2013-02-09 12:54:00,46.5,25.7,30.33,NE,38,0.0,6.0,44,0.00,,,0.00,Wunderground v.1.15,2013-02-09 17:54:00,
2013-02-09 12:59:00,46.8,26.0,30.33,NE,49,5.0,6.0,44,0.00,,,0.00,Wunderground v.1.15,2013-02-09 17:59:00,
2013-02-09 13:04:00,47.3,23.6,30.33,ESE,113,9.0,11.0,39,0.00,,,0.00,Wunderground v.1.15,2013-02-09 18:04:00,
2013-02-09 13:09:00,47.4,23.7,30.33,NNE,15,2.0,11.0,39,0.00,,,0.00,Wunderground v.1.15,2013-02-09 18:09:00,
2013-02-09 13:14:00,47.6,25.0,30.33,NE,34,3.0,6.0,41,0.00,,,0.00,Wunderground v.1.15,2013-02-09 18:14:00,
2013-02-09 13:19:00,48.0,24.2,30.33,NE,52,0.0,6.0,39,0.00,,,0.00,Wunderground v.1.15,2013-02-09 18:19:00,
2013-02-09 13:24:00,48.3,25.7,30.31,NE,53,4.0,5.0,41,0.00,,,0.00,Wunderground v.1.15,2013-02-09 18:24:00,
2013-02-09 13:29:00,48.5,23.4,30.31,NE,39,0.0,5.0,37,0.00,,,0.00,Wunderground v.1.15,2013-02-09 18:29:00,
2013-02-09 13:34:00,48.8,24.3,30.31,NE,38,0.0,4.0,38,0.00,,,0.00,Wunderground v.1.15,2013-02-09 18:34:00,
2013-02-09 13:39:00,48.9,24.4,30.31,East,86,6.0,7.0,38,0.00,,,0.00,Wunderground v.1.15,2013-02-09 18:39:00,
2013-02-09 13:44:00,48.8,23.6,30.31,ENE,71,3.0,11.0,37,0.00,,,0.00,Wunderground v.1.15,2013-02-09 18:44:00,
2013-02-09 13:49:00,48.6,24.1,30.31,East,96,0.0,11.0,38,0.00,,,0.00,Wunderground v.1.15,2013-02-09 18:49:00,
2013-02-09 13:54:00,48.9,23.7,30.31,East,86,2.0,6.0,37,0.00,,,0.00,Wunderground v.1.15,2013-02-09 18:54:00,
2013-02-09 13:59:00,49.1,23.9,30.31,East,81,4.0,6.0,37,0.00,,,0.00,Wunderground v.1.15,2013-02-09 18:59:00,
2013-02-09 14:04:00,49.6,25.6,30.31,East,97,6.0,7.0,39,0.00,,,0.00,Wunderground v.1.15,2013-02-09 19:04:00,
2013-02-09 14:09:00,49.6,23.0,30.29,East,84,4.0,9.0,35,0.00,,,0.00,Wunderground v.1.15,2013-02-09 19:09:00,
2013-02-09 14:14:00,49.6,24.4,30.29,NE,55,0.0,9.0,37,0.00,,,0.00,Wunderground v.1.15,2013-02-09 19:14:00,
2013-02-09 14:19:00,49.2,24.0,30.29,East,99,4.0,9.0,37,0.00,,,0.00,Wunderground v.1.15,2013-02-09 19:19:00,
2013-02-09 14:24:00,49.1,25.2,30.30,East,89,1.0,6.0,39,0.00,,,0.00,Wunderground v.1.15,2013-02-09 19:24:00,
2013-02-09 14:29:00,49.6,23.7,30.30,East,88,3.0,6.0,36,0.00,,,0.00,Wunderground v.1.15,2013-02-09 19:29:00,
2013-02-09 14:34:00,49.9,25.3,30.30,East,84,1.0,6.0,38,0.00,,,0.00,Wunderground v.1.15,2013-02-09 19:34:00,
2013-02-09 14:39:00,49.9,23.3,30.30,East,95,2.0,9.0,35,0.00,,,0.00,Wunderground v.1.15,2013-02-09 19:39:00,
2013-02-09 14:44:00,49.9,24.0,30.30,East,96,2.0,5.0,36,0.00,,,0.00,Wunderground v.1.15,2013-02-09 19:44:00,
2013-02-09 14:49:00,50.2,24.2,30.30,East,96,0.0,5.0,36,0.00,,,0.00,Wunderground v.1.15,2013-02-09 19:49:00,
2013-02-09 14:54:00,50.8,26.1,30.29,East,94,3.0,6.0,38,0.00,,,0.00,Wunderground v.1.15,2013-02-09 19:54:00,
2013-02-09 14:59:00,50.5,25.2,30.29,East,94,0.0,7.0,37,0.00,,,0.00,Wunderground v.1.15,2013-02-09 19:59:00,
2013-02-09 15:04:00,50.7,25.3,30.29,East,93,2.0,6.0,37,0.00,,,0.00,Wunderground v.1.15,2013-02-09 20:04:00,
2013-02-09 15:09:00,50.5,24.5,30.28,East,94,0.0,6.0,36,0.00,,,0.00,Wunderground v.1.15,2013-02-09 20:09:00,
2013-02-09 15:14:00,50.5,25.2,30.28,East,94,1.0,4.0,37,0.00,,,0.00,Wunderground v.1.15,2013-02-09 20:14:00,
2013-02-09 15:19:00,50.5,26.4,30.28,East,94,0.0,5.0,39,0.00,,,0.00,Wunderground v.1.15,2013-02-09 20:19:00,
2013-02-09 15:25:00,50.4,27.0,30.28,East,94,0.0,5.0,40,0.00,,,0.00,Wunderground v.1.15,2013-02-09 20:25:00,
2013-02-09 15:29:00,50.4,26.3,30.28,East,94,0.0,5.0,39,0.00,,,0.00,Wunderground v.1.15,2013-02-09 20:29:00,
2013-02-09 15:35:00,50.5,24.5,30.28,East,94,0.0,2.0,36,0.00,,,0.00,Wunderground v.1.15,2013-02-09 20:35:00,
2013-02-09 15:40:00,50.7,24.7,30.28,East,94,0.0,0.0,36,0.00,,,0.00,Wunderground v.1.15,2013-02-09 20:40:00,
2013-02-09 15:45:00,51.1,26.3,30.28,ESE,110,7.0,7.0,38,0.00,,,0.00,Wunderground v.1.15,2013-02-09 20:45:00,
2013-02-09 15:50:00,51.6,25.5,30.28,ESE,105,4.0,4.0,36,0.00,,,0.00,Wunderground v.1.15,2013-02-09 20:50:00,
2013-02-09 15:55:00,51.4,26.6,30.27,ESE,105,0.0,5.0,38,0.00,,,0.00,Wunderground v.1.15,2013-02-09 20:55:00,
2013-02-09 16:00:00,51.3,26.5,30.27,ESE,105,0.0,1.0,38,0.00,,,0.00,Wunderground v.1.15,2013-02-09 21:00:00,
2013-02-09 16:05:00,51.1,25.7,30.27,ESE,104,1.0,1.0,37,0.00,,,0.00,Wunderground v.1.15,2013-02-09 21:05:00,
2013-02-09 16:10:00,51.0,26.3,30.27,ESE,104,0.0,0.0,38,0.00,,,0.00,Wunderground v.1.15,2013-02-09 21:10:00,
2013-02-09 16:15:00,50.8,27.3,30.27,ESE,105,0.0,3.0,40,0.00,,,0.00,Wunderground v.1.15,2013-02-09 21:15:00,
2013-02-09 16:20:00,50.7,26.0,30.27,ESE,104,0.0,1.0,38,0.00,,,0.00,Wunderground v.1.15,2013-02-09 21:20:00,
2013-02-09 16:25:00,50.2,26.2,30.28,ESE,104,0.0,4.0,39,0.00,,,0.00,Wunderground v.1.15,2013-02-09 21:25:00,
2013-02-09 16:30:00,50.2,26.2,30.28,ESE,104,0.0,1.0,39,0.00,,,0.00,Wunderground v.1.15,2013-02-09 21:30:00,
2013-02-09 16:35:00,50.2,28.0,30.28,ESE,104,0.0,4.0,42,0.00,,,0.00,Wunderground v.1.15,2013-02-09 21:35:00,
2013-02-09 16:40:00,50.4,27.0,30.28,ESE,104,0.0,2.0,40,0.00,,,0.00,Wunderground v.1.15,2013-02-09 21:40:00,
2013-02-09 16:45:00,50.2,26.2,30.28,ESE,104,0.0,2.0,39,0.00,,,0.00,Wunderground v.1.15,2013-02-09 21:45:00,
2013-02-09 16:50:00,50.2,27.4,30.28,ESE,104,2.0,4.0,41,0.00,,,0.00,Wunderground v.1.15,2013-02-09 21:50:00,
2013-02-09 16:55:00,50.1,25.5,30.28,ESE,104,0.0,4.0,38,0.00,,,0.00,Wunderground v.1.15,2013-02-09 21:55:00,
2013-02-09 17:00:00,49.8,26.4,30.28,ESE,104,0.0,1.0,40,0.00,,,0.00,Wunderground v.1.15,2013-02-09 22:00:00,
2013-02-09 17:05:00,49.8,26.4,30.28,ESE,104,0.0,1.0,40,0.00,,,0.00,Wunderground v.1.15,2013-02-09 22:05:00,
2013-02-09 17:10:00,49.8,27.0,30.28,ESE,104,0.0,0.0,41,0.00,,,0.00,Wunderground v.1.15,2013-02-09 22:10:00,
2013-02-09 17:15:00,49.9,26.5,30.28,ESE,104,0.0,1.0,40,0.00,,,0.00,Wunderground v.1.15,2013-02-09 22:15:00,
2013-02-09 17:20:00,49.9,27.1,30.28,ESE,105,0.0,1.0,41,0.00,,,0.00,Wunderground v.1.15,2013-02-09 22:20:00,
2013-02-09 17:25:00,49.8,27.6,30.28,ESE,104,0.0,2.0,42,0.00,,,0.00,Wunderground v.1.15,2013-02-09 22:25:00,
2013-02-09 17:30:00,49.5,26.7,30.28,ESE,104,0.0,0.0,41,0.00,,,0.00,Wunderground v.1.15,2013-02-09 22:30:00,
2013-02-09 17:35:00,49.4,27.8,30.28,ESE,105,0.0,0.0,43,0.00,,,0.00,Wunderground v.1.15,2013-02-09 22:35:00,
2013-02-09 17:40:00,49.2,27.6,30.27,ESE,104,0.0,0.0,43,0.00,,,0.00,Wunderground v.1.15,2013-02-09 22:40:00,
2013-02-09 17:45:00,48.8,26.1,30.27,ESE,104,0.0,0.0,41,0.00,,,0.00,Wunderground v.1.15,2013-02-09 22:45:00,
2013-02-09 17:51:00,48.6,25.9,30.27,ESE,104,0.0,0.0,41,0.00,,,0.00,Wunderground v.1.15,2013-02-09 22:51:00,
2013-02-09 17:56:00,48.2,26.2,30.28,ESE,104,0.0,0.0,42,0.00,,,0.00,Wunderground v.1.15,2013-02-09 22:56:00,
2013-02-09 18:01:00,48.0,26.5,30.28,ESE,104,0.0,0.0,43,0.00,,,0.00,Wunderground v.1.15,2013-02-09 23:01:00,
2013-02-09 18:06:00,47.7,25.7,30.28,ESE,104,0.0,0.0,42,0.00,,,0.00,Wunderground v.1.15,2013-02-09 23:06:00,
2013-02-09 18:11:00,47.6,26.2,30.29,ESE,104,0.0,0.0,43,0.00,,,0.00,Wunderground v.1.15,2013-02-09 23:11:00,
2013-02-09 18:16:00,47.3,26.5,30.29,ESE,104,0.0,0.0,44,0.00,,,0.00,Wunderground v.1.15,2013-02-09 23:16:00,
2013-02-09 18:21:00,47.0,26.2,30.29,ESE,104,0.0,0.0,44,0.00,,,0.00,Wunderground v.1.15,2013-02-09 23:21:00,
2013-02-09 18:26:00,46.7,25.9,30.28,ESE,104,0.0,0.0,44,0.00,,,0.00,Wunderground v.1.15,2013-02-09 23:26:00,
2013-02-09 18:31:00,46.5,26.3,30.28,ESE,104,0.0,0.0,45,0.00,,,0.00,Wunderground v.1.15,2013-02-09 23:31:00,
2013-02-09 18:36:00,46.2,26.5,30.28,ESE,104,0.0,0.0,46,0.00,,,0.00,Wunderground v.1.15,2013-02-09 23:36:00,
2013-02-09 18:41:00,46.1,26.4,30.28,ESE,104,0.0,0.0,46,0.00,,,0.00,Wunderground v.1.15,2013-02-09 23:41:00,
2013-02-09 18:46:00,46.0,26.4,30.28,ESE,104,0.0,0.0,46,0.00,,,0.00,Wunderground v.1.15,2013-02-09 23:46:00,
2013-02-09 18:51:00,46.0,25.3,30.28,ESE,104,0.0,0.0,44,0.00,,,0.00,Wunderground v.1.15,2013-02-09 23:51:00,
2013-02-09 18:56:00,45.8,25.1,30.29,ESE,105,0.0,2.0,44,0.00,,,0.00,Wunderground v.1.15,2013-02-09 23:56:00,
2013-02-09 19:01:00,45.8,25.1,30.29,ESE,104,0.0,0.0,44,0.00,,,0.00,Wunderground v.1.15,2013-02-10 00:01:00,
2013-02-09 19:06:00,45.8,25.1,30.29,ESE,104,0.0,1.0,44,0.00,,,0.00,Wunderground v.1.15,2013-02-10 00:06:00,
2013-02-09 19:11:00,45.7,25.5,30.29,ESE,104,0.0,0.0,45,0.00,,,0.00,Wunderground v.1.15,2013-02-10 00:11:00,
2013-02-09 19:16:00,45.4,25.8,30.29,ESE,104,0.0,0.0,46,0.00,,,0.00,Wunderground v.1.15,2013-02-10 00:16:00,
2013-02-09 19:21:00,45.4,25.8,30.29,ESE,104,0.0,0.0,46,0.00,,,0.00,Wunderground v.1.15,2013-02-10 00:21:00,
2013-02-09 19:26:00,45.2,25.1,30.29,ESE,104,0.0,1.0,45,0.00,,,0.00,Wunderground v.1.15,2013-02-10 00:26:00,
2013-02-09 19:31:00,45.1,25.5,30.29,ESE,104,0.0,0.0,46,0.00,,,0.00,Wunderground v.1.15,2013-02-10 00:31:00,
2013-02-09 19:36:00,44.9,23.7,30.29,ESE,104,0.0,1.0,43,0.00,,,0.00,Wunderground v.1.15,2013-02-10 00:36:00,
2013-02-09 19:41:00,44.8,23.1,30.29,ESE,104,0.0,3.0,42,0.00,,,0.00,Wunderground v.1.15,2013-02-10 00:41:00,
2013-02-09 19:46:00,44.8,23.6,30.29,ESE,104,0.0,3.0,43,0.00,,,0.00,Wunderground v.1.15,2013-02-10 00:46:00,
2013-02-09 19:51:00,44.6,23.5,30.29,ESE,105,0.0,0.0,43,0.00,,,0.00,Wunderground v.1.15,2013-02-10 00:51:00,
2013-02-09 19:56:00,44.5,23.4,30.29,ESE,104,0.0,2.0,43,0.00,,,0.00,Wunderground v.1.15,2013-02-10 00:56:00,
2013-02-09 20:01:00,44.2,22.5,30.29,ESE,104,0.0,1.0,42,0.00,,,0.00,Wunderground v.1.15,2013-02-10 01:01:00,
2013-02-09 20:07:00,44.1,23.0,30.29,ESE,104,0.0,1.0,43,0.00,,,0.00,Wunderground v.1.15,2013-02-10 01:07:00,
2013-02-09 20:12:00,44.1,23.0,30.29,ESE,104,0.0,1.0,43,0.00,,,0.00,Wunderground v.1.15,2013-02-10 01:12:00,
2013-02-09 20:17:00,43.8,22.7,30.29,ESE,104,0.0,3.0,43,0.00,,,0.00,Wunderground v.1.15,2013-02-10 01:17:00,
2013-02-09 20:22:00,43.9,22.8,30.27,ESE,104,0.0,3.0,43,0.00,,,0.00,Wunderground v.1.15,2013-02-10 01:22:00,
2013-02-09 20:27:00,43.9,22.3,30.27,ESE,104,1.0,3.0,42,0.00,,,0.00,Wunderground v.1.15,2013-02-10 01:27:00,
2013-02-09 20:32:00,44.1,23.0,30.27,ESE,104,0.0,3.0,43,0.00,,,0.00,Wunderground v.1.15,2013-02-10 01:32:00,
2013-02-09 20:37:00,44.1,21.9,30.28,ESE,104,0.0,3.0,41,0.00,,,0.00,Wunderground v.1.15,2013-02-10 01:37:00,
2013-02-09 20:42:00,43.9,22.8,30.28,ESE,105,0.0,3.0,43,0.00,,,0.00,Wunderground v.1.15,2013-02-10 01:42:00,
2013-02-09 20:47:00,43.9,22.8,30.28,ESE,104,1.0,6.0,43,0.00,,,0.00,Wunderground v.1.15,2013-02-10 01:47:00,
2013-02-09 20:52:00,43.8,22.7,30.28,ESE,104,1.0,4.0,43,0.00,,,0.00,Wunderground v.1.15,2013-02-10 01:52:00,
2013-02-09 20:59:00,43.8,22.2,30.28,ESE,104,0.0,2.0,42,0.00,,,0.00,Wunderground v.1.15,2013-02-10 01:59:00,
2013-02-09 21:04:00,43.9,22.8,30.28,ESE,104,0.0,3.0,43,0.00,,,0.00,Wunderground v.1.15,2013-02-10 02:04:00,
2013-02-09 21:09:00,43.9,22.3,30.28,ESE,104,0.0,4.0,42,0.00,,,0.00,Wunderground v.1.15,2013-02-10 02:09:00,
2013-02-09 21:14:00,43.8,22.2,30.28,ESE,104,0.0,2.0,42,0.00,,,0.00,Wunderground v.1.15,2013-02-10 02:14:00,
2013-02-09 21:19:00,43.8,22.7,30.28,ESE,104,2.0,3.0,43,0.00,,,0.00,Wunderground v.1.15,2013-02-10 02:19:00,
2013-02-09 21:24:00,43.6,22.0,30.28,ESE,119,3.0,6.0,42,0.00,,,0.00,Wunderground v.1.15,2013-02-10 02:24:00,
2013-02-09 21:29:00,43.8,23.3,30.28,ESE,103,2.0,6.0,44,0.00,,,0.00,Wunderground v.1.15,2013-02-10 02:29:00,
2013-02-09 21:34:00,43.9,22.3,30.28,ESE,103,0.0,4.0,42,0.00,,,0.00,Wunderground v.1.15,2013-02-10 02:34:00,
2013-02-09 21:39:00,43.9,22.3,30.27,ESE,103,0.0,4.0,42,0.00,,,0.00,Wunderground v.1.15,2013-02-10 02:39:00,
2013-02-09 21:44:00,44.2,22.0,30.27,East,100,1.0,5.0,41,0.00,,,0.00,Wunderground v.1.15,2013-02-10 02:44:00,
2013-02-09 21:49:00,44.2,22.0,30.27,East,100,3.0,5.0,41,0.00,,,0.00,Wunderground v.1.15,2013-02-10 02:49:00,
2013-02-09 21:54:00,44.1,22.4,30.27,East,100,0.0,3.0,42,0.00,,,0.00,Wunderground v.1.15,2013-02-10 02:54:00,
2013-02-09 21:59:00,43.9,21.7,30.27,East,100,0.0,3.0,41,0.00,,,0.00,Wunderground v.1.15,2013-02-10 02:59:00,
2013-02-09 22:04:00,44.1,22.4,30.27,East,100,0.0,3.0,42,0.00,,,0.00,Wunderground v.1.15,2013-02-10 03:04:00,
2013-02-09 22:09:00,44.1,21.9,30.28,East,100,0.0,3.0,41,0.00,,,0.00,Wunderground v.1.15,2013-02-10 03:09:00,
2013-02-09 22:14:00,43.9,22.3,30.28,East,100,0.0,1.0,42,0.00,,,0.00,Wunderground v.1.15,2013-02-10 03:14:00,
2013-02-09 22:19:00,43.9,22.3,30.28,East,100,0.0,1.0,42,0.00,,,0.00,Wunderground v.1.15,2013-02-10 03:19:00,
2013-02-09 22:24:00,43.8,22.7,30.27,East,100,1.0,4.0,43,0.00,,,0.00,Wunderground v.1.15,2013-02-10 03:24:00,
2013-02-09 22:29:00,43.9,22.3,30.27,East,100,0.0,4.0,42,0.00,,,0.00,Wunderground v.1.15,2013-02-10 03:29:00,
2013-02-09 22:35:00,43.9,21.1,30.27,East,100,0.0,5.0,40,0.00,,,0.00,Wunderground v.1.15,2013-02-10 03:35:00,
2013-02-09 22:40:00,43.6,22.5,30.27,SE,144,5.0,5.0,43,0.00,,,0.00,Wunderground v.1.15,2013-02-10 03:40:00,
2013-02-09 22:45:00,43.6,22.5,30.27,SE,143,0.0,5.0,43,0.00,,,0.00,Wunderground v.1.15,2013-02-10 03:45:00,
2013-02-09 22:50:00,43.6,22.5,30.27,ESE,108,0.0,2.0,43,0.00,,,0.00,Wunderground v.1.15,2013-02-10 03:50:00,
2013-02-09 22:55:00,43.9,21.7,30.26,ESE,108,1.0,7.0,41,0.00,,,0.00,Wunderground v.1.15,2013-02-10 03:55:00,
2013-02-09 23:00:00,44.2,22.5,30.26,ESE,105,3.0,3.0,42,0.00,,,0.00,Wunderground v.1.15,2013-02-10 04:00:00,
2013-02-09 23:05:00,44.2,22.0,30.26,ESE,105,3.0,5.0,41,0.00,,,0.00,Wunderground v.1.15,2013-02-10 04:05:00,
2013-02-09 23:10:00,44.1,23.0,30.26,ESE,105,0.0,1.0,43,0.00,,,0.00,Wunderground v.1.15,2013-02-10 04:10:00,
2013-02-09 23:15:00,43.9,23.4,30.26,ESE,105,0.0,1.0,44,0.00,,,0.00,Wunderground v.1.15,2013-02-10 04:15:00,
2013-02-09 23:20:00,43.8,23.3,30.26,ESE,105,0.0,0.0,44,0.00,,,0.00,Wunderground v.1.15,2013-02-10 04:20:00,
2013-02-09 23:25:00,43.6,23.1,30.25,ESE,105,0.0,3.0,44,0.00,,,0.00,Wunderground v.1.15,2013-02-10 04:25:00,
2013-02-09 23:30:00,43.6,23.1,30.25,ESE,105,0.0,0.0,44,0.00,,,0.00,Wunderground v.1.15,2013-02-10 04:30:00,
2013-02-09 23:35:00,43.5,23.0,30.25,ESE,105,3.0,6.0,44,0.00,,,0.00,Wunderground v.1.15,2013-02-10 04:35:00,
2013-02-09 23:40:00,43.3,22.8,30.25,ESE,105,0.0,1.0,44,0.00,,,0.00,Wunderground v.1.15,2013-02-10 04:40:00,
2013-02-09 23:45:00,43.3,22.8,30.25,ESE,105,0.0,1.0,44,0.00,,,0.00,Wunderground v.1.15,2013-02-10 04:45:00,
2013-02-09 23:50:00,43.5,23.0,30.25,ESE,105,0.0,0.0,44,0.00,,,0.00,Wunderground v.1.15,2013-02-10 04:50:00,
2013-02-09 23:55:00,43.3,22.8,30.25,ESE,105,0.0,0.0,44,0.00,,,0.00,Wunderground v.1.15,2013-02-10 04:55:00,